Time,TemperatureF,DewpointF,PressureIn,WindDirection,WindDirectionDegrees,WindSpeedMPH,WindSpeedGustMPH,Humidity,HourlyPrecipIn,Conditions,Clouds,dailyrainin,SolarRadiationWatts/m^2,SoftwareType,DateUTC
2013-04-12 00:00:00,50.7,47.3,29.82,WSW,237,2.3,2.3,88,0.00,,SKC,0.00,0.0,WeatherDisplay:10.37,2013-04-12 07:00:00,
2013-04-12 00:05:00,50.6,46.9,29.82,WSW,237,3.5,3.5,87,0.00,,SKC,0.00,0.0,WeatherDisplay:10.37,2013-04-12 07:05:00,
2013-04-12 00:10:00,50.4,46.7,29.82,WSW,237,0.0,0.0,87,0.00,,SKC,0.00,0.0,WeatherDisplay:10.37,2013-04-12 07:10:00,
2013-04-12 00:15:00,50.4,46.7,29.82,WSW,237,1.2,1.2,87,0.00,,SKC,0.00,0.0,WeatherDisplay:10.37,2013-04-12 07:15:00,
2013-04-12 00:20:00,50.1,46.7,29.82,WSW,237,2.3,2.3,88,0.00,,SKC,0.00,0.0,WeatherDisplay:10.37,2013-04-12 07:20:00,
2013-04-12 00:25:00,49.9,46.2,29.82,WSW,237,1.2,1.2,87,0.00,,SKC,0.00,0.0,WeatherDisplay:10.37,2013-04-12 07:25:00,
2013-04-12 00:30:00,49.7,46.0,29.82,WSW,237,0.0,0.0,87,0.00,,SKC,0.00,0.0,WeatherDisplay:10.37,2013-04-12 07:30:00,
2013-04-12 00:35:00,49.7,46.0,29.82,WSW,237,1.2,1.2,87,0.00,,SKC,0.00,0.0,WeatherDisplay:10.37,2013-04-12 07:35:00,
2013-04-12 00:40:00,49.6,45.9,29.82,WSW,237,2.3,2.3,87,0.00,,SKC,0.00,0.0,WeatherDisplay:10.37,2013-04-12 07:40:00,
2013-04-12 00:45:00,49.5,45.8,29.82,WSW,237,2.3,2.3,87,0.00,,SKC,0.00,0.0,WeatherDisplay:10.37,2013-04-12 07:45:00,
2013-04-12 00:50:00,49.3,45.6,29.82,West,269,3.5,3.5,87,0.00,,SKC,0.00,0.0,WeatherDisplay:10.37,2013-04-12 07:50:00,
2013-04-12 00:55:00,49.0,45.3,29.82,West,269,2.3,2.3,87,0.00,,SKC,0.00,0.0,WeatherDisplay:10.37,2013-04-12 07:55:00,
2013-04-12 01:01:00,48.7,45.0,29.82,West,269,1.2,1.2,87,0.00,,SKC,0.00,0.0,WeatherDisplay:10.37,2013-04-12 08:01:00,
2013-04-12 01:06:00,48.4,44.7,29.82,West,269,2.3,2.3,87,0.00,,SKC,0.00,0.0,WeatherDisplay:10.37,2013-04-12 08:06:00,
2013-04-12 01:11:00,48.3,44.6,29.82,West,269,2.3,2.3,87,0.00,,SKC,0.00,0.0,WeatherDisplay:10.37,2013-04-12 08:11:00,
2013-04-12 01:16:00,48.0,44.0,29.82,West,269,3.0,3.0,86,0.00,,SKC,0.00,0.0,WeatherDisplay:10.37,2013-04-12 08:16:00,
2013-04-12 01:21:00,47.8,44.1,29.82,West,269,1.2,0.0,87,0.00,,SKC,0.00,0.0,WeatherDisplay:10.37,2013-04-12 08:21:00,
2013-04-12 01:26:00,47.7,44.0,29.82,West,269,3.5,3.5,87,0.00,,SKC,0.00,0.0,WeatherDisplay:10.37,2013-04-12 08:26:00,
2013-04-12 01:31:00,47.6,43.9,29.82,West,269,2.3,2.3,87,0.00,,SKC,0.00,0.0,WeatherDisplay:10.37,2013-04-12 08:31:00,
2013-04-12 01:36:00,47.4,43.7,29.82,West,269,2.3,2.3,87,0.00,,SKC,0.00,0.0,WeatherDisplay:10.37,2013-04-12 08:36:00,
2013-04-12 01:41:00,47.4,43.7,29.82,West,269,1.2,1.2,87,0.00,,SKC,0.00,0.0,WeatherDisplay:10.37,2013-04-12 08:41:00,
2013-04-12 01:47:00,47.3,43.9,29.82,West,269,3.5,3.5,88,0.00,,SKC,0.00,0.0,WeatherDisplay:10.37,2013-04-12 08:47:00,
2013-04-12 01:52:00,47.3,43.9,29.82,West,269,1.2,1.2,88,0.00,,SKC,0.00,0.0,WeatherDisplay:10.37,2013-04-12 08:52:00,
2013-04-12 01:57:00,47.2,43.8,29.82,West,269,2.3,2.3,88,0.00,,SKC,0.00,0.0,WeatherDisplay:10.37,2013-04-12 08:57:00,
2013-04-12 02:02:00,47.1,43.7,29.82,West,269,3.5,3.5,88,0.00,,SKC,0.00,0.0,WeatherDisplay:10.37,2013-04-12 09:02:00,
2013-04-12 02:07:00,46.9,43.5,29.82,West,269,3.5,3.5,88,0.00,,SKC,0.00,0.0,WeatherDisplay:10.37,2013-04-12 09:07:00,
2013-04-12 02:12:00,46.8,43.4,29.82,West,269,0.0,0.0,88,0.00,,SKC,0.00,0.0,WeatherDisplay:10.37,2013-04-12 09:12:00,
2013-04-12 02:17:00,46.8,43.7,29.82,West,269,1.2,1.2,89,0.00,,SKC,0.00,0.0,WeatherDisplay:10.37,2013-04-12 09:17:00,
2013-04-12 02:22:00,46.7,43.6,29.82,West,269,2.3,2.3,89,0.00,,SKC,0.00,0.0,WeatherDisplay:10.37,2013-04-12 09:22:00,
2013-04-12 02:27:00,46.5,43.4,29.82,West,269,0.0,0.0,89,0.00,,SKC,0.00,0.0,WeatherDisplay:10.37,2013-04-12 09:27:00,
2013-04-12 02:32:00,46.4,43.3,29.82,West,269,0.0,0.0,89,0.00,,SKC,0.00,0.0,WeatherDisplay:10.37,2013-04-12 09:32:00,
2013-04-12 02:37:00,46.4,43.3,29.82,West,269,2.3,2.3,89,0.00,,SKC,0.00,0.0,WeatherDisplay:10.37,2013-04-12 09:37:00,
2013-04-12 02:42:00,46.3,43.2,29.82,West,269,0.0,0.3,89,0.00,,SKC,0.00,0.0,WeatherDisplay:10.37,2013-04-12 09:42:00,
2013-04-12 02:48:00,46.7,43.9,29.82,East,88,3.5,3.5,90,0.00,,SKC,0.00,0.0,WeatherDisplay:10.37,2013-04-12 09:48:00,
2013-04-12 02:53:00,47.5,44.7,29.82,NE,49,5.8,5.8,90,0.00,,SKC,0.00,0.0,WeatherDisplay:10.37,2013-04-12 09:53:00,
2013-04-12 02:58:00,47.8,45.3,29.82,ENE,77,6.9,6.9,91,0.00,,SKC,0.00,0.0,WeatherDisplay:10.37,2013-04-12 09:58:00,
2013-04-12 03:03:00,47.8,45.3,29.82,ENE,63,8.1,8.1,91,0.00,,SKC,0.00,0.0,WeatherDisplay:10.37,2013-04-12 10:03:00,
2013-04-12 03:08:00,47.8,45.3,29.82,East,81,6.9,6.9,91,0.00,,SKC,0.00,0.0,WeatherDisplay:10.37,2013-04-12 10:08:00,
2013-04-12 03:13:00,47.7,45.2,29.81,ENE,74,4.0,4.0,91,0.00,,SKC,0.00,0.0,WeatherDisplay:10.37,2013-04-12 10:13:00,
2013-04-12 03:18:00,47.7,45.2,29.81,NNE,27,5.8,5.8,91,0.00,,SKC,0.00,0.0,WeatherDisplay:10.37,2013-04-12 10:18:00,
2013-04-12 03:23:00,47.6,45.1,29.81,ENE,60,4.6,4.6,91,0.00,,SKC,0.00,0.0,WeatherDisplay:10.37,2013-04-12 10:23:00,
2013-04-12 03:28:00,47.8,45.3,29.81,ENE,61,6.9,6.9,91,0.00,,SKC,0.00,0.0,WeatherDisplay:10.37,2013-04-12 10:28:00,
2013-04-12 03:33:00,47.9,45.4,29.81,ENE,59,4.6,4.6,91,0.00,,SKC,0.00,0.0,WeatherDisplay:10.37,2013-04-12 10:33:00,
2013-04-12 03:38:00,47.8,45.3,29.81,NNE,29,2.3,2.3,91,0.00,,SKC,0.00,0.0,WeatherDisplay:10.37,2013-04-12 10:38:00,
2013-04-12 03:43:00,47.6,45.1,29.81,NE,43,4.6,4.6,91,0.00,,SKC,0.00,0.0,WeatherDisplay:10.37,2013-04-12 10:43:00,
2013-04-12 03:48:00,47.8,45.3,29.81,ENE,58,4.6,4.6,91,0.00,,SKC,0.00,0.0,WeatherDisplay:10.37,2013-04-12 10:48:00,
2013-04-12 03:53:00,47.8,45.3,29.81,ENE,59,2.3,2.3,91,0.00,,SKC,0.00,0.0,WeatherDisplay:10.37,2013-04-12 10:53:00,
2013-04-12 03:58:00,47.7,45.2,29.81,ENE,59,2.3,2.3,91,0.00,,SKC,0.00,0.0,WeatherDisplay:10.37,2013-04-12 10:58:00,
2013-04-12 04:03:00,47.6,45.1,29.81,NE,51,3.5,3.5,91,0.00,,SKC,0.00,0.0,WeatherDisplay:10.37,2013-04-12 11:03:00,
2013-04-12 04:08:00,47.6,45.1,29.81,NE,36,3.5,3.5,91,0.00,,SKC,0.00,0.0,WeatherDisplay:10.37,2013-04-12 11:08:00,
2013-04-12 04:13:00,47.6,45.1,29.80,NE,36,1.2,1.2,91,0.00,,SKC,0.00,0.0,WeatherDisplay:10.37,2013-04-12 11:13:00,
2013-04-12 04:18:00,47.6,45.1,29.80,NE,36,3.5,3.5,91,0.00,,SKC,0.00,0.0,WeatherDisplay:10.37,2013-04-12 11:18:00,
2013-04-12 04:23:00,47.4,44.9,29.80,NE,35,3.5,3.5,91,0.00,,SKC,0.00,0.0,WeatherDisplay:10.37,2013-04-12 11:23:00,
2013-04-12 04:28:00,47.4,44.9,29.80,NE,35,3.5,3.5,91,0.00,,SKC,0.00,0.0,WeatherDisplay:10.37,2013-04-12 11:28:00,
2013-04-12 04:33:00,47.4,44.9,29.80,NNE,31,3.5,3.5,91,0.00,,SKC,0.00,0.0,WeatherDisplay:10.37,2013-04-12 11:33:00,
2013-04-12 04:38:00,47.6,45.1,29.80,NNE,30,3.5,3.5,91,0.00,,SKC,0.00,0.0,WeatherDisplay:10.37,2013-04-12 11:38:00,
2013-04-12 04:43:00,47.6,45.1,29.81,NNE,22,4.6,4.6,91,0.00,,SKC,0.00,0.0,WeatherDisplay:10.37,2013-04-12 11:43:00,
2013-04-12 04:48:00,47.6,45.1,29.81,NNW,333,6.0,6.0,91,0.00,,SKC,0.00,0.0,WeatherDisplay:10.37,2013-04-12 11:48:00,
2013-04-12 04:53:00,47.4,44.9,29.81,NNW,344,2.3,2.3,91,0.00,,SKC,0.00,0.0,WeatherDisplay:10.37,2013-04-12 11:53:00,
2013-04-12 04:58:00,47.4,44.9,29.81,NNW,344,3.5,3.5,91,0.00,,SKC,0.00,0.0,WeatherDisplay:10.37,2013-04-12 11:58:00,
2013-04-12 05:03:00,47.4,44.9,29.81,NNW,344,3.5,3.5,91,0.00,,SKC,0.00,0.0,WeatherDisplay:10.37,2013-04-12 12:03:00,
2013-04-12 05:08:00,47.4,44.9,29.81,NNW,344,3.5,3.5,91,0.00,,SKC,0.00,0.0,WeatherDisplay:10.37,2013-04-12 12:08:00,
2013-04-12 05:13:00,47.4,44.9,29.81,NNE,20,4.0,4.0,91,0.00,,SKC,0.00,0.0,WeatherDisplay:10.37,2013-04-12 12:13:00,
2013-04-12 05:18:00,47.2,44.7,29.81,North,355,5.0,5.0,91,0.00,,SKC,0.00,0.0,WeatherDisplay:10.37,2013-04-12 12:18:00,
2013-04-12 05:23:00,47.2,44.7,29.80,North,355,3.5,3.5,91,0.00,,SKC,0.00,0.0,WeatherDisplay:10.37,2013-04-12 12:23:00,
2013-04-12 05:28:00,47.2,44.7,29.80,NW,309,3.5,3.5,91,0.00,,SKC,0.00,0.0,WeatherDisplay:10.37,2013-04-12 12:28:00,
2013-04-12 05:33:00,47.1,44.6,29.80,NNW,329,4.0,4.0,91,0.00,,SKC,0.00,0.0,WeatherDisplay:10.37,2013-04-12 12:33:00,
2013-04-12 05:38:00,47.0,44.5,29.81,NNW,329,3.5,3.5,91,0.00,,SKC,0.00,0.0,WeatherDisplay:10.37,2013-04-12 12:38:00,
2013-04-12 05:43:00,47.0,44.5,29.81,NNW,342,2.3,2.3,91,0.00,,SKC,0.00,0.0,WeatherDisplay:10.37,2013-04-12 12:43:00,
2013-04-12 05:48:00,47.0,44.5,29.81,NNW,342,3.5,3.5,91,0.00,,SKC,0.00,0.0,WeatherDisplay:10.37,2013-04-12 12:48:00,
2013-04-12 05:53:00,46.9,44.4,29.81,NNW,342,3.5,3.5,91,0.00,,SKC,0.00,0.0,WeatherDisplay:10.37,2013-04-12 12:53:00,
2013-04-12 05:58:00,46.9,44.4,29.81,NNW,342,1.0,1.2,91,0.00,,SKC,0.00,0.0,WeatherDisplay:10.37,2013-04-12 12:58:00,
2013-04-12 06:03:00,47.0,44.5,29.81,NNW,342,0.0,0.1,91,0.00,,SKC,0.00,0.0,WeatherDisplay:10.37,2013-04-12 13:03:00,
2013-04-12 06:08:00,46.9,44.4,29.81,NNW,342,2.3,2.3,91,0.00,OVC,SKC,0.00,0.0,WeatherDisplay:10.37,2013-04-12 13:08:00,
2013-04-12 06:13:00,46.9,44.7,29.81,NNW,342,1.2,1.2,92,0.00,OVC,SKC,0.00,0.0,WeatherDisplay:10.37,2013-04-12 13:13:00,
2013-04-12 06:18:00,47.0,44.8,29.81,NNW,342,1.2,1.2,92,0.00,OVC,SKC,0.00,0.0,WeatherDisplay:10.37,2013-04-12 13:18:00,
2013-04-12 06:24:00,47.0,44.8,29.81,NNW,341,1.2,1.2,92,0.00,OVC,SKC,0.00,0.0,WeatherDisplay:10.37,2013-04-12 13:24:00,
2013-04-12 06:29:00,47.0,44.8,29.81,NNW,341,1.2,1.2,92,0.00,OVC,SKC,0.00,0.0,WeatherDisplay:10.37,2013-04-12 13:29:00,
2013-04-12 06:34:00,47.1,44.9,29.81,NNW,341,3.5,3.5,92,0.00,OVC,SKC,0.00,0.0,WeatherDisplay:10.37,2013-04-12 13:34:00,
2013-04-12 06:39:00,47.0,44.8,29.82,NNW,341,3.5,3.5,92,0.00,OVC,SKC,0.00,0.0,WeatherDisplay:10.37,2013-04-12 13:39:00,
2013-04-12 06:44:00,46.9,44.7,29.82,NNW,344,3.5,3.5,92,0.00,OVC,SKC,0.00,5.0,WeatherDisplay:10.37,2013-04-12 13:44:00,
2013-04-12 06:49:00,46.8,44.6,29.82,NNW,344,3.5,3.5,92,0.00,OVC,SKC,0.00,7.0,WeatherDisplay:10.37,2013-04-12 13:49:00,
2013-04-12 06:54:00,46.9,44.7,29.82,NNW,344,3.5,3.5,92,0.00,OVC,SKC,0.00,11.0,WeatherDisplay:10.37,2013-04-12 13:54:00,
2013-04-12 06:59:00,46.8,44.6,29.82,NNW,344,2.3,2.3,92,0.00,OVC,SKC,0.00,12.0,WeatherDisplay:10.37,2013-04-12 13:59:00,
2013-04-12 07:04:00,46.7,44.5,29.82,NNW,344,2.3,2.3,92,0.00,OVC,SKC,0.00,21.0,WeatherDisplay:10.37,2013-04-12 14:04:00,
2013-04-12 07:09:00,46.6,44.4,29.83,NNW,342,3.5,3.5,92,0.00,OVC,SKC,0.00,25.0,WeatherDisplay:10.37,2013-04-12 14:09:00,
2013-04-12 07:14:00,46.5,44.3,29.83,NNW,335,4.0,4.0,92,0.00,OVC,SKC,0.00,23.0,WeatherDisplay:10.37,2013-04-12 14:14:00,
2013-04-12 07:19:00,46.4,44.2,29.83,NNW,335,4.0,4.0,92,0.00,OVC,SKC,0.00,46.0,WeatherDisplay:10.37,2013-04-12 14:19:00,
2013-04-12 07:24:00,46.2,44.0,29.84,NNW,334,3.0,3.0,92,0.00,OVC,SKC,0.00,51.0,WeatherDisplay:10.37,2013-04-12 14:24:00,
2013-04-12 07:29:00,46.1,43.9,29.84,NNW,333,4.0,4.0,92,0.00,OVC,SKC,0.00,62.0,WeatherDisplay:10.37,2013-04-12 14:29:00,
2013-04-12 07:34:00,45.8,43.6,29.84,NW,323,4.6,4.6,92,0.00,OVC,SKC,0.00,54.0,WeatherDisplay:10.37,2013-04-12 14:34:00,
2013-04-12 07:39:00,45.6,43.4,29.84,NW,319,4.6,4.6,92,0.00,OVC,SKC,0.00,104.0,WeatherDisplay:10.37,2013-04-12 14:39:00,
2013-04-12 07:44:00,45.6,43.4,29.84,NNW,333,4.6,4.6,92,0.00,OVC,SKC,0.00,116.0,WeatherDisplay:10.37,2013-04-12 14:44:00,
2013-04-12 07:49:00,45.8,43.6,29.84,NW,305,3.5,3.5,92,0.00,OVC,SKC,0.00,134.0,WeatherDisplay:10.37,2013-04-12 14:49:00,
2013-04-12 07:54:00,46.0,43.8,29.84,West,279,3.0,3.0,92,0.00,OVC,SKC,0.00,127.0,WeatherDisplay:10.37,2013-04-12 14:54:00,
2013-04-12 07:59:00,46.0,43.8,29.84,NW,318,6.9,6.9,92,0.00,OVC,SKC,0.00,158.0,WeatherDisplay:10.37,2013-04-12 14:59:00,
2013-04-12 08:04:00,46.0,43.8,29.84,SW,235,3.5,3.5,92,0.00,OVC,SKC,0.00,139.0,WeatherDisplay:10.37,2013-04-12 15:04:00,
2013-04-12 08:09:00,46.1,43.9,29.85,West,279,3.5,3.5,92,0.00,OVC,SKC,0.00,190.0,WeatherDisplay:10.37,2013-04-12 15:09:00,
2013-04-12 08:14:00,46.2,44.0,29.85,WNW,286,3.5,3.5,92,0.00,OVC,SKC,0.00,190.0,WeatherDisplay:10.37,2013-04-12 15:14:00,
2013-04-12 08:19:00,46.5,44.3,29.85,WNW,283,3.5,3.5,92,0.00,OVC,SKC,0.00,230.0,WeatherDisplay:10.37,2013-04-12 15:19:00,
2013-04-12 08:24:00,46.8,44.6,29.85,WNW,283,3.5,3.5,92,0.00,OVC,SKC,0.00,165.0,WeatherDisplay:10.37,2013-04-12 15:24:00,
2013-04-12 08:29:00,46.9,44.7,29.85,SW,224,5.8,5.8,92,0.00,OVC,SKC,0.00,306.0,WeatherDisplay:10.37,2013-04-12 15:29:00,
2013-04-12 08:34:00,47.1,44.9,29.85,SW,225,3.5,3.5,92,0.00,OVC,SKC,0.00,350.0,WeatherDisplay:10.37,2013-04-12 15:34:00,
2013-04-12 08:39:00,47.3,44.8,29.85,SW,225,3.5,3.5,91,0.00,OVC,SKC,0.00,371.0,WeatherDisplay:10.37,2013-04-12 15:39:00,
2013-04-12 08:44:00,47.6,45.1,29.85,SSW,209,3.5,3.5,91,0.00,OVC,SKC,0.00,396.0,WeatherDisplay:10.37,2013-04-12 15:44:00,
2013-04-12 08:49:00,47.9,45.4,29.85,SSW,202,3.5,3.5,91,0.00,OVC,SKC,0.00,376.0,WeatherDisplay:10.37,2013-04-12 15:49:00,
2013-04-12 08:54:00,48.2,45.7,29.85,SSW,200,4.6,4.6,91,0.00,OVC,SKC,0.00,383.0,WeatherDisplay:10.37,2013-04-12 15:54:00,
2013-04-12 08:59:00,48.4,45.9,29.85,South,180,3.5,3.5,91,0.00,OVC,SKC,0.00,406.0,WeatherDisplay:10.37,2013-04-12 15:59:00,
2013-04-12 09:04:00,48.6,45.8,29.85,SSW,192,3.5,3.5,90,0.00,OVC,SKC,0.00,424.0,WeatherDisplay:10.37,2013-04-12 16:04:00,
2013-04-12 09:09:00,48.8,46.0,29.86,SSE,165,5.8,5.8,90,0.00,OVC,SKC,0.00,434.0,WeatherDisplay:10.37,2013-04-12 16:09:00,
2013-04-12 09:14:00,48.8,45.7,29.86,SSE,160,4.6,4.6,89,0.00,OVC,SKC,0.00,455.0,WeatherDisplay:10.37,2013-04-12 16:14:00,
2013-04-12 09:19:00,49.2,46.4,29.86,South,182,3.5,3.5,90,0.00,OVC,SKC,0.00,478.0,WeatherDisplay:10.37,2013-04-12 16:19:00,
2013-04-12 09:24:00,49.6,46.5,29.85,SSE,154,5.0,5.0,89,0.00,OVC,SKC,0.00,506.0,WeatherDisplay:10.37,2013-04-12 16:24:00,
2013-04-12 09:29:00,49.6,46.5,29.85,SSE,165,5.0,5.0,89,0.00,OVC,SKC,0.00,436.0,WeatherDisplay:10.37,2013-04-12 16:29:00,
2013-04-12 09:34:00,49.6,46.2,29.85,SSE,163,5.8,5.8,88,0.00,OVC,SKC,0.00,578.0,WeatherDisplay:10.37,2013-04-12 16:34:00,
2013-04-12 09:39:00,49.4,46.3,29.85,SSE,155,4.6,4.6,89,0.00,OVC,SKC,0.00,434.0,WeatherDisplay:10.37,2013-04-12 16:39:00,
2013-04-12 09:44:00,49.5,46.4,29.85,SSE,165,7.0,7.0,89,0.00,OVC,SKC,0.00,468.0,WeatherDisplay:10.37,2013-04-12 16:44:00,
2013-04-12 09:49:00,49.6,46.5,29.85,SSE,163,5.0,5.0,89,0.00,OVC,SKC,0.00,555.0,WeatherDisplay:10.37,2013-04-12 16:49:00,
2013-04-12 09:54:00,49.7,46.3,29.86,South,174,5.8,5.8,88,0.00,OVC,SKC,0.00,628.0,WeatherDisplay:10.37,2013-04-12 16:54:00,
2013-04-12 09:59:00,49.8,46.7,29.86,SSE,153,4.6,4.6,89,0.00,OVC,SKC,0.00,397.0,WeatherDisplay:10.37,2013-04-12 16:59:00,
2013-04-12 10:04:00,50.0,46.6,29.86,SSE,152,6.9,6.9,88,0.00,OVC,SKC,0.00,668.0,WeatherDisplay:10.37,2013-04-12 17:04:00,
2013-04-12 10:09:00,50.2,46.8,29.85,SSE,153,5.8,5.8,88,0.00,OVC,SKC,0.00,671.0,WeatherDisplay:10.37,2013-04-12 17:09:00,
2013-04-12 10:14:00,50.6,47.2,29.85,South,180,4.6,4.6,88,0.00,OVC,SKC,0.00,385.0,WeatherDisplay:10.37,2013-04-12 17:14:00,
2013-04-12 10:19:00,51.0,47.6,29.85,South,169,4.6,4.6,88,0.00,OVC,SKC,0.00,761.0,WeatherDisplay:10.37,2013-04-12 17:19:00,
2013-04-12 10:24:00,51.3,47.6,29.85,SW,220,4.6,4.6,87,0.00,OVC,SKC,0.00,392.0,WeatherDisplay:10.37,2013-04-12 17:24:00,
2013-04-12 10:29:00,50.8,47.1,29.85,South,170,4.6,4.6,87,0.00,OVC,SKC,0.00,752.0,WeatherDisplay:10.37,2013-04-12 17:29:00,
2013-04-12 10:34:00,51.2,47.5,29.85,SSE,148,6.0,6.0,87,0.00,OVC,SKC,0.00,731.0,WeatherDisplay:10.37,2013-04-12 17:34:00,
2013-04-12 10:39:00,51.4,47.7,29.86,SSE,153,5.0,5.0,87,0.00,OVC,SKC,0.00,733.0,WeatherDisplay:10.37,2013-04-12 17:39:00,
2013-04-12 10:44:00,51.8,47.7,29.86,SSE,148,8.1,8.1,86,0.00,OVC,SKC,0.00,770.0,WeatherDisplay:10.37,2013-04-12 17:44:00,
2013-04-12 10:50:00,51.7,47.6,29.86,SSE,164,6.0,6.0,86,0.00,OVC,SKC,0.00,612.0,WeatherDisplay:10.37,2013-04-12 17:50:00,
2013-04-12 10:55:00,51.5,47.5,29.85,SSW,207,4.6,4.6,86,0.00,OVC,SKC,0.00,441.0,WeatherDisplay:10.37,2013-04-12 17:55:00,
2013-04-12 11:00:00,51.2,47.5,29.85,South,169,6.0,6.0,87,0.00,OVC,SKC,0.00,835.0,WeatherDisplay:10.37,2013-04-12 18:00:00,
2013-04-12 11:05:00,50.9,47.2,29.85,SSW,209,4.6,4.6,87,0.00,OVC,SKC,0.00,809.0,WeatherDisplay:10.37,2013-04-12 18:05:00,
2013-04-12 11:10:00,51.4,47.7,29.86,SSE,157,6.9,6.9,87,0.00,OVC,SKC,0.00,853.0,WeatherDisplay:10.37,2013-04-12 18:10:00,
2013-04-12 11:16:00,51.6,47.9,29.86,SSE,168,7.0,7.0,87,0.00,OVC,SKC,0.00,877.0,WeatherDisplay:10.37,2013-04-12 18:16:00,
2013-04-12 11:21:00,52.2,48.1,29.86,SSE,152,5.8,5.8,86,0.00,OVC,SKC,0.00,877.0,WeatherDisplay:10.37,2013-04-12 18:21:00,
2013-04-12 11:30:00,52.2,47.8,29.86,South,183,5.8,5.8,85,0.00,OVC,SKC,0.00,773.0,WeatherDisplay:10.37,2013-04-12 18:30:00,
2013-04-12 12:26:00,53.2,49.1,29.84,South,179,5.8,5.8,86,0.00,OVC,SKC,0.00,888.0,WeatherDisplay:10.37,2013-04-12 19:26:00,
2013-04-12 12:27:00,53.2,49.1,29.84,South,179,5.8,5.8,86,0.00,OVC,SKC,0.00,888.0,WeatherDisplay:10.37,2013-04-12 19:27:00,
2013-04-12 12:32:00,54.2,49.5,29.84,SSW,200,5.8,5.8,84,0.00,OVC,SKC,0.00,893.0,WeatherDisplay:10.37,2013-04-12 19:32:00,
2013-04-12 12:37:00,55.0,49.6,29.84,SW,221,9.2,9.2,82,0.00,OVC,SKC,0.00,896.0,WeatherDisplay:10.37,2013-04-12 19:37:00,
2013-04-12 12:42:00,55.1,49.7,29.83,WSW,242,6.0,6.0,82,0.00,OVC,SKC,0.00,895.0,WeatherDisplay:10.37,2013-04-12 19:42:00,
2013-04-12 12:47:00,55.8,50.1,29.83,SSW,193,8.1,8.1,81,0.00,OVC,SKC,0.00,902.0,WeatherDisplay:10.37,2013-04-12 19:47:00,
2013-04-12 12:52:00,56.5,50.4,29.83,West,271,7.0,7.0,80,0.00,OVC,SKC,0.00,905.0,WeatherDisplay:10.37,2013-04-12 19:52:00,
2013-04-12 12:57:00,56.5,49.7,29.83,SW,215,7.0,7.0,78,0.00,OVC,SKC,0.00,909.0,WeatherDisplay:10.37,2013-04-12 19:57:00,
2013-04-12 13:02:00,56.1,50.0,29.83,South,175,6.9,6.9,80,0.00,OVC,SKC,0.00,909.0,WeatherDisplay:10.37,2013-04-12 20:02:00,
2013-04-12 13:07:00,56.6,49.8,29.83,SSW,195,8.1,8.1,78,0.00,OVC,SKC,0.00,911.0,WeatherDisplay:10.37,2013-04-12 20:07:00,
2013-04-12 13:12:00,56.5,49.7,29.82,SSE,153,6.9,6.9,78,0.00,OVC,SKC,0.00,909.0,WeatherDisplay:10.37,2013-04-12 20:12:00,
2013-04-12 13:17:00,57.5,50.0,29.82,SE,145,6.9,6.9,76,0.00,OVC,SKC,0.00,909.0,WeatherDisplay:10.37,2013-04-12 20:17:00,
2013-04-12 13:22:00,58.2,50.3,29.82,SE,146,4.6,4.6,75,0.00,OVC,SKC,0.00,909.0,WeatherDisplay:10.37,2013-04-12 20:22:00,
2013-04-12 13:27:00,58.4,49.8,29.82,SE,142,8.1,8.1,73,0.00,OVC,SKC,0.00,911.0,WeatherDisplay:10.37,2013-04-12 20:27:00,
2013-04-12 13:32:00,58.5,49.9,29.82,SE,137,5.8,5.8,73,0.00,OVC,SKC,0.00,905.0,WeatherDisplay:10.37,2013-04-12 20:32:00,
2013-04-12 13:37:00,58.7,50.1,29.82,SSW,200,4.6,4.6,73,0.00,OVC,SKC,0.00,907.0,WeatherDisplay:10.37,2013-04-12 20:37:00,
2013-04-12 13:42:00,59.0,50.4,29.81,SSE,159,4.6,4.6,73,0.00,OVC,SKC,0.00,905.0,WeatherDisplay:10.37,2013-04-12 20:42:00,
2013-04-12 13:47:00,59.6,49.8,29.81,SSE,159,5.0,5.0,70,0.00,OVC,SKC,0.00,902.0,WeatherDisplay:10.37,2013-04-12 20:47:00,
2013-04-12 13:52:00,59.5,50.1,29.81,SE,141,4.6,4.6,71,0.00,OVC,SKC,0.00,898.0,WeatherDisplay:10.37,2013-04-12 20:52:00,
2013-04-12 13:57:00,59.8,49.6,29.81,SE,135,5.0,5.0,69,0.00,OVC,SKC,0.00,896.0,WeatherDisplay:10.37,2013-04-12 20:57:00,
2013-04-12 14:03:00,60.4,50.2,29.81,South,171,4.0,4.0,69,0.00,OVC,SKC,0.00,893.0,WeatherDisplay:10.37,2013-04-12 21:03:00,
2013-04-12 14:08:00,59.9,49.7,29.81,ESE,123,5.8,5.8,69,0.00,OVC,SKC,0.00,891.0,WeatherDisplay:10.37,2013-04-12 21:08:00,
2013-04-12 14:13:00,59.6,49.8,29.81,SE,129,4.6,4.6,70,0.00,OVC,SKC,0.00,886.0,WeatherDisplay:10.37,2013-04-12 21:13:00,
2013-04-12 14:18:00,60.2,50.0,29.81,SSE,148,4.0,4.0,69,0.00,OVC,SKC,0.00,884.0,WeatherDisplay:10.37,2013-04-12 21:18:00,
2013-04-12 14:23:00,60.0,50.6,29.81,SE,133,4.6,5.2,71,0.00,OVC,SKC,0.00,884.0,WeatherDisplay:10.37,2013-04-12 21:23:00,
2013-04-12 14:28:00,59.2,50.5,29.80,East,101,5.8,5.8,73,0.00,OVC,SKC,0.00,791.0,WeatherDisplay:10.37,2013-04-12 21:28:00,
2013-04-12 14:33:00,59.0,51.1,29.80,ESE,121,6.9,6.9,75,0.00,OVC,SKC,0.00,844.0,WeatherDisplay:10.37,2013-04-12 21:33:00,
2013-04-12 14:38:00,59.1,50.8,29.80,ESE,122,4.6,4.6,74,0.00,OVC,SKC,0.00,860.0,WeatherDisplay:10.37,2013-04-12 21:38:00,
2013-04-12 14:43:00,59.1,50.5,29.80,East,95,5.8,5.8,73,0.00,BKN,SKC,0.00,849.0,WeatherDisplay:10.37,2013-04-12 21:43:00,
2013-04-12 14:48:00,59.5,50.8,29.80,SE,124,6.9,6.9,73,0.00,SCT,SKC,0.00,814.0,WeatherDisplay:10.37,2013-04-12 21:48:00,
2013-04-12 14:53:00,60.0,51.3,29.80,SE,132,4.6,4.6,73,0.00,CLR,SKC,0.00,809.0,WeatherDisplay:10.37,2013-04-12 21:53:00,
2013-04-12 14:58:00,60.3,51.2,29.79,SE,140,7.0,7.0,72,0.00,CLR,SKC,0.00,802.0,WeatherDisplay:10.37,2013-04-12 21:58:00,
2013-04-12 15:03:00,60.1,50.3,29.79,SSE,162,5.0,5.0,70,0.00,CLR,SKC,0.00,816.0,WeatherDisplay:10.37,2013-04-12 22:03:00,
2013-04-12 15:08:00,59.8,50.0,29.79,SSE,153,2.3,2.3,70,0.00,CLR,SKC,0.00,803.0,WeatherDisplay:10.37,2013-04-12 22:08:00,
2013-04-12 15:13:00,60.2,50.4,29.79,SSE,153,4.0,4.0,70,0.00,CLR,SKC,0.00,803.0,WeatherDisplay:10.37,2013-04-12 22:13:00,
2013-04-12 15:18:00,61.1,50.1,29.79,SSE,165,5.8,5.8,67,0.00,CLR,SKC,0.00,780.0,WeatherDisplay:10.37,2013-04-12 22:18:00,
2013-04-12 15:23:00,61.2,49.3,29.79,SSE,149,5.0,5.0,65,0.00,CLR,SKC,0.00,756.0,WeatherDisplay:10.37,2013-04-12 22:23:00,
2013-04-12 15:28:00,61.9,50.0,29.78,South,189,4.6,4.6,65,0.00,CLR,SKC,0.00,770.0,WeatherDisplay:10.37,2013-04-12 22:28:00,
2013-04-12 15:33:00,61.7,49.4,29.78,South,179,5.8,5.8,64,0.00,CLR,SKC,0.00,766.0,WeatherDisplay:10.37,2013-04-12 22:33:00,
2013-04-12 15:38:00,61.5,51.2,29.78,SW,236,8.1,8.1,69,0.00,CLR,SKC,0.00,682.0,WeatherDisplay:10.37,2013-04-12 22:38:00,
2013-04-12 15:43:00,61.4,51.5,29.78,SW,219,5.8,5.8,70,0.00,CLR,SKC,0.00,737.0,WeatherDisplay:10.37,2013-04-12 22:43:00,
2013-04-12 15:48:00,61.9,52.0,29.78,SW,227,5.8,5.8,70,0.00,CLR,SKC,0.00,698.0,WeatherDisplay:10.37,2013-04-12 22:48:00,
2013-04-12 15:53:00,62.4,52.1,29.78,WSW,239,5.0,5.0,69,0.00,CLR,SKC,0.00,698.0,WeatherDisplay:10.37,2013-04-12 22:53:00,
2013-04-12 15:58:00,62.5,51.4,29.77,SW,223,5.0,5.0,67,0.00,CLR,SKC,0.00,687.0,WeatherDisplay:10.37,2013-04-12 22:58:00,
2013-04-12 16:03:00,62.7,51.2,29.77,SW,222,3.5,3.5,66,0.00,CLR,SKC,0.00,680.0,WeatherDisplay:10.37,2013-04-12 23:03:00,
2013-04-12 16:08:00,63.0,51.0,29.77,SSW,213,5.8,5.8,65,0.00,CLR,SKC,0.00,668.0,WeatherDisplay:10.37,2013-04-12 23:08:00,
2013-04-12 16:13:00,63.2,51.6,29.77,SSW,208,3.5,3.5,66,0.00,CLR,SKC,0.00,654.0,WeatherDisplay:10.37,2013-04-12 23:13:00,
2013-04-12 16:18:00,64.0,50.3,29.77,SE,141,2.3,2.3,61,0.00,CLR,SKC,0.00,619.0,WeatherDisplay:10.37,2013-04-12 23:18:00,
2013-04-12 16:23:00,63.3,49.2,29.77,ENE,76,3.5,3.5,60,0.00,CLR,SKC,0.00,615.0,WeatherDisplay:10.37,2013-04-12 23:23:00,
2013-04-12 16:28:00,62.5,49.3,29.76,ESE,102,5.8,5.8,62,0.00,CLR,SKC,0.00,608.0,WeatherDisplay:10.37,2013-04-12 23:28:00,
2013-04-12 16:33:00,62.0,49.7,29.76,ESE,113,6.0,6.0,64,0.00,CLR,SKC,0.00,601.0,WeatherDisplay:10.37,2013-04-12 23:33:00,
2013-04-12 16:38:00,61.6,49.7,29.76,ESE,103,5.0,5.0,65,0.00,CLR,SKC,0.00,584.0,WeatherDisplay:10.37,2013-04-12 23:38:00,
2013-04-12 16:43:00,61.0,50.8,29.77,East,87,6.9,6.9,69,0.00,CLR,SKC,0.00,568.0,WeatherDisplay:10.37,2013-04-12 23:43:00,
2013-04-12 16:48:00,60.6,51.5,29.77,ENE,63,6.9,6.9,72,0.00,CLR,SKC,0.00,512.0,WeatherDisplay:10.37,2013-04-12 23:48:00,
2013-04-12 16:53:00,60.4,51.7,29.77,East,82,5.8,5.8,73,0.00,CLR,SKC,0.00,527.0,WeatherDisplay:10.37,2013-04-12 23:53:00,
2013-04-12 16:58:00,60.4,50.6,29.76,East,79,8.1,8.1,70,0.00,CLR,SKC,0.00,531.0,WeatherDisplay:10.37,2013-04-12 23:58:00,
2013-04-12 17:03:00,59.6,50.6,29.76,East,101,9.2,9.2,72,0.00,CLR,SKC,0.00,515.0,WeatherDisplay:10.37,2013-04-13 00:03:00,
2013-04-12 17:08:00,59.5,50.8,29.76,ESE,102,8.1,8.1,73,0.00,CLR,SKC,0.00,476.0,WeatherDisplay:10.37,2013-04-13 00:08:00,
2013-04-12 17:13:00,59.5,51.2,29.76,East,99,7.0,7.0,74,0.00,CLR,SKC,0.00,461.0,WeatherDisplay:10.37,2013-04-13 00:13:00,
2013-04-12 17:18:00,58.9,51.0,29.76,NE,53,4.6,4.6,75,0.00,CLR,SKC,0.00,457.0,WeatherDisplay:10.37,2013-04-13 00:18:00,
2013-04-12 17:23:00,58.6,51.1,29.76,ESE,113,8.1,8.1,76,0.00,CLR,SKC,0.00,439.0,WeatherDisplay:10.37,2013-04-13 00:23:00,
2013-04-12 17:28:00,58.7,51.2,29.76,ENE,70,4.6,4.6,76,0.00,CLR,SKC,0.00,422.0,WeatherDisplay:10.37,2013-04-13 00:28:00,
2013-04-12 17:33:00,58.9,51.0,29.76,East,93,10.4,10.4,75,0.00,FEW,SKC,0.00,367.0,WeatherDisplay:10.37,2013-04-13 00:33:00,
2013-04-12 17:38:00,59.1,51.9,29.76,ENE,67,5.0,5.0,77,0.00,SCT,SKC,0.00,401.0,WeatherDisplay:10.37,2013-04-13 00:38:00,
2013-04-12 17:43:00,59.1,50.8,29.77,ESE,110,8.1,8.1,74,0.00,SCT,SKC,0.00,390.0,WeatherDisplay:10.37,2013-04-13 00:43:00,
2013-04-12 17:48:00,58.7,50.8,29.77,East,96,8.1,8.1,75,0.00,SCT,SKC,0.00,373.0,WeatherDisplay:10.37,2013-04-13 00:48:00,
2013-04-12 17:53:00,58.2,51.0,29.77,East,92,7.0,7.0,77,0.00,SCT,SKC,0.00,346.0,WeatherDisplay:10.37,2013-04-13 00:53:00,
2013-04-12 17:58:00,57.8,51.0,29.77,East,94,12.7,12.7,78,0.00,SCT,SKC,0.00,327.0,WeatherDisplay:10.37,2013-04-13 00:58:00,
2013-04-12 18:03:00,57.8,50.6,29.77,East,97,11.5,11.5,77,0.00,SCT,SKC,0.00,302.0,WeatherDisplay:10.37,2013-04-13 01:03:00,
2013-04-12 18:08:00,58.1,50.9,29.77,East,82,8.1,8.1,77,0.00,BKN,SKC,0.00,276.0,WeatherDisplay:10.37,2013-04-13 01:08:00,
2013-04-12 18:13:00,58.2,51.0,29.76,ENE,69,9.2,9.2,77,0.00,BKN,SKC,0.00,255.0,WeatherDisplay:10.37,2013-04-13 01:13:00,
2013-04-12 18:18:00,58.5,51.3,29.76,ESE,107,12.0,12.0,77,0.00,BKN,SKC,0.00,234.0,WeatherDisplay:10.37,2013-04-13 01:18:00,
2013-04-12 18:23:00,58.6,51.1,29.76,ESE,121,9.2,9.2,76,0.00,BKN,SKC,0.00,216.0,WeatherDisplay:10.37,2013-04-13 01:23:00,
2013-04-12 18:28:00,58.6,51.4,29.76,ESE,108,15.0,15.0,77,0.00,BKN,SKC,0.00,199.0,WeatherDisplay:10.37,2013-04-13 01:28:00,
2013-04-12 18:33:00,58.4,51.6,29.76,ESE,115,9.2,9.2,78,0.00,BKN,SKC,0.00,181.0,WeatherDisplay:10.37,2013-04-13 01:33:00,
2013-04-12 18:38:00,58.1,51.6,29.76,SE,125,11.5,11.5,79,0.00,BKN,SKC,0.00,162.0,WeatherDisplay:10.37,2013-04-13 01:38:00,
2013-04-12 18:43:00,57.7,51.6,29.76,ESE,116,12.0,12.0,80,0.00,BKN,SKC,0.00,142.0,WeatherDisplay:10.37,2013-04-13 01:43:00,
2013-04-12 18:48:00,57.3,51.9,29.76,SE,124,9.2,9.2,82,0.00,BKN,SKC,0.00,125.0,WeatherDisplay:10.37,2013-04-13 01:48:00,
2013-04-12 18:53:00,57.1,51.7,29.77,SE,144,12.0,12.0,82,0.00,BKN,SKC,0.00,111.0,WeatherDisplay:10.37,2013-04-13 01:53:00,
2013-04-12 18:58:00,57.2,51.8,29.77,ESE,111,9.2,9.2,82,0.00,BKN,SKC,0.00,93.0,WeatherDisplay:10.37,2013-04-13 01:58:00,
2013-04-12 19:03:00,56.8,51.7,29.77,SSE,148,15.0,15.0,83,0.00,BKN,SKC,0.00,74.0,WeatherDisplay:10.37,2013-04-13 02:03:00,
2013-04-12 19:08:00,56.1,51.0,29.77,SE,130,11.5,11.5,83,0.00,BKN,SKC,0.00,58.0,WeatherDisplay:10.37,2013-04-13 02:08:00,
2013-04-12 19:13:00,55.1,50.7,29.77,SE,136,12.7,12.7,85,0.00,OVC,SKC,0.00,46.0,WeatherDisplay:10.37,2013-04-13 02:13:00,
2013-04-12 19:18:00,54.5,50.4,29.77,SE,128,11.5,11.5,86,0.00,OVC,SKC,0.00,33.0,WeatherDisplay:10.37,2013-04-13 02:18:00,
2013-04-12 19:23:00,53.9,50.1,29.77,ESE,123,12.7,12.7,87,0.00,OVC,SKC,0.00,19.0,WeatherDisplay:10.37,2013-04-13 02:23:00,
2013-04-12 19:28:00,53.4,49.6,29.77,SE,132,11.5,11.5,87,0.00,OVC,SKC,0.00,14.0,WeatherDisplay:10.37,2013-04-13 02:28:00,
2013-04-12 19:33:00,53.2,49.7,29.77,SSE,148,11.5,11.5,88,0.00,OVC,SKC,0.00,11.0,WeatherDisplay:10.37,2013-04-13 02:33:00,
2013-04-12 19:38:00,53.0,49.5,29.78,SE,126,12.7,12.7,88,0.00,OVC,SKC,0.00,7.0,WeatherDisplay:10.37,2013-04-13 02:38:00,
2013-04-12 19:43:00,52.9,49.4,29.78,SE,131,13.8,13.8,88,0.00,OVC,SKC,0.00,0.0,WeatherDisplay:10.37,2013-04-13 02:43:00,
2013-04-12 19:48:00,52.9,49.4,29.78,SE,144,12.7,12.7,88,0.00,OVC,SKC,0.00,0.0,WeatherDisplay:10.37,2013-04-13 02:48:00,
2013-04-12 19:53:00,52.8,49.3,29.79,ESE,122,13.8,13.8,88,0.00,OVC,SKC,0.00,0.0,WeatherDisplay:10.37,2013-04-13 02:53:00,
2013-04-12 19:58:00,52.8,49.3,29.79,ESE,115,11.5,11.5,88,0.00,OVC,SKC,0.00,0.0,WeatherDisplay:10.37,2013-04-13 02:58:00,
2013-04-12 20:03:00,52.6,49.1,29.79,ESE,107,9.0,9.0,88,0.00,,SKC,0.00,0.0,WeatherDisplay:10.37,2013-04-13 03:03:00,
2013-04-12 20:08:00,52.7,49.2,29.79,East,101,11.5,11.5,88,0.00,,SKC,0.00,0.0,WeatherDisplay:10.37,2013-04-13 03:08:00,
2013-04-12 20:13:00,52.5,48.7,29.79,ESE,102,11.5,11.5,87,0.00,,SKC,0.00,0.0,WeatherDisplay:10.37,2013-04-13 03:13:00,
2013-04-12 20:18:00,52.4,48.9,29.79,East,80,11.5,11.5,88,0.00,,SKC,0.00,0.0,WeatherDisplay:10.37,2013-04-13 03:18:00,
2013-04-12 20:23:00,52.4,48.9,29.80,ESE,107,8.1,8.1,88,0.00,,SKC,0.00,0.0,WeatherDisplay:10.37,2013-04-13 03:23:00,
2013-04-12 20:29:00,52.3,48.9,29.80,East,98,9.2,9.2,88,0.00,,SKC,0.00,0.0,WeatherDisplay:10.37,2013-04-13 03:29:00,
2013-04-12 20:34:00,52.2,48.8,29.80,SE,133,9.2,9.2,88,0.00,,SKC,0.00,0.0,WeatherDisplay:10.37,2013-04-13 03:34:00,
2013-04-12 20:39:00,52.1,48.7,29.80,ESE,123,11.5,11.5,88,0.00,,SKC,0.00,0.0,WeatherDisplay:10.37,2013-04-13 03:39:00,
2013-04-12 20:44:00,52.0,48.6,29.80,ESE,108,9.2,9.2,88,0.00,,SKC,0.00,0.0,WeatherDisplay:10.37,2013-04-13 03:44:00,
2013-04-12 20:49:00,51.9,48.5,29.80,ESE,119,11.5,11.5,88,0.00,,SKC,0.00,0.0,WeatherDisplay:10.37,2013-04-13 03:49:00,
2013-04-12 20:54:00,51.9,48.5,29.81,ESE,107,8.1,8.1,88,0.00,,SKC,0.00,0.0,WeatherDisplay:10.37,2013-04-13 03:54:00,
2013-04-12 20:59:00,51.8,48.4,29.81,ESE,113,6.9,6.9,88,0.00,,SKC,0.00,0.0,WeatherDisplay:10.37,2013-04-13 03:59:00,
2013-04-12 21:00:00,51.8,48.4,29.81,ESE,117,6.9,6.9,88,0.00,,SKC,0.00,0.0,WeatherDisplay:10.37,2013-04-13 04:00:00,
2013-04-12 21:05:00,51.7,48.3,29.81,East,92,8.1,8.1,88,0.00,,SKC,0.00,0.0,WeatherDisplay:10.37,2013-04-13 04:05:00,
2013-04-12 21:10:00,51.7,48.3,29.81,ESE,113,6.9,6.9,88,0.00,,SKC,0.00,0.0,WeatherDisplay:10.37,2013-04-13 04:10:00,
2013-04-12 21:15:00,51.6,48.2,29.81,ESE,107,5.8,5.8,88,0.00,,SKC,0.00,0.0,WeatherDisplay:10.37,2013-04-13 04:15:00,
2013-04-12 21:20:00,51.6,48.2,29.81,ESE,111,6.9,6.9,88,0.00,,SKC,0.00,0.0,WeatherDisplay:10.37,2013-04-13 04:20:00,
2013-04-12 21:25:00,51.6,48.2,29.81,ESE,123,4.0,4.0,88,0.00,,SKC,0.00,0.0,WeatherDisplay:10.37,2013-04-13 04:25:00,
2013-04-12 21:30:00,51.6,48.2,29.81,ESE,123,4.6,4.6,88,0.00,,SKC,0.00,0.0,WeatherDisplay:10.37,2013-04-13 04:30:00,
2013-04-12 21:35:00,51.6,48.2,29.81,ESE,107,5.8,5.8,88,0.00,,SKC,0.00,0.0,WeatherDisplay:10.37,2013-04-13 04:35:00,
2013-04-12 21:40:00,51.6,48.2,29.81,East,100,2.0,2.0,88,0.00,,SKC,0.00,0.0,WeatherDisplay:10.37,2013-04-13 04:40:00,
2013-04-12 21:45:00,51.5,48.1,29.81,ESE,105,3.5,3.5,88,0.00,,SKC,0.00,0.0,WeatherDisplay:10.37,2013-04-13 04:45:00,
2013-04-12 21:50:00,51.5,48.1,29.81,ESE,106,2.3,2.3,88,0.00,,SKC,0.00,0.0,WeatherDisplay:10.37,2013-04-13 04:50:00,
2013-04-12 21:55:00,51.5,48.1,29.82,ESE,107,0.0,0.0,88,0.00,,SKC,0.00,0.0,WeatherDisplay:10.37,2013-04-13 04:55:00,
2013-04-12 22:00:00,51.5,48.1,29.82,ESE,109,2.3,2.3,88,0.00,,SKC,0.00,0.0,WeatherDisplay:10.37,2013-04-13 05:00:00,
2013-04-12 22:05:00,51.5,48.1,29.82,SE,130,1.2,0.0,88,0.00,,SKC,0.00,0.0,WeatherDisplay:10.37,2013-04-13 05:05:00,
2013-04-12 22:10:00,51.5,48.1,29.82,SE,130,1.2,0.0,88,0.00,,SKC,0.00,0.0,WeatherDisplay:10.37,2013-04-13 05:10:00,
2013-04-12 22:15:00,51.4,48.0,29.82,SE,130,0.0,0.0,88,0.00,,SKC,0.00,0.0,WeatherDisplay:10.37,2013-04-13 05:15:00,
2013-04-12 22:20:00,51.3,47.9,29.82,SE,130,0.0,0.0,88,0.00,,SKC,0.00,0.0,WeatherDisplay:10.37,2013-04-13 05:20:00,
2013-04-12 22:25:00,51.1,47.7,29.83,SE,130,0.0,0.0,88,0.00,,SKC,0.00,0.0,WeatherDisplay:10.37,2013-04-13 05:25:00,
2013-04-12 22:30:00,50.9,47.5,29.83,SE,130,0.0,0.0,88,0.00,,SKC,0.00,0.0,WeatherDisplay:10.37,2013-04-13 05:30:00,
2013-04-12 22:35:00,50.8,47.4,29.83,SE,130,2.3,2.3,88,0.00,,SKC,0.00,0.0,WeatherDisplay:10.37,2013-04-13 05:35:00,
2013-04-12 22:40:00,50.7,47.6,29.84,SE,130,0.0,0.0,89,0.00,,SKC,0.00,0.0,WeatherDisplay:10.37,2013-04-13 05:40:00,
2013-04-12 22:45:00,50.8,47.7,29.84,SE,130,0.0,0.0,89,0.00,,SKC,0.00,0.0,WeatherDisplay:10.37,2013-04-13 05:45:00,
2013-04-12 22:50:00,50.8,47.7,29.84,SE,130,0.0,0.0,89,0.00,,SKC,0.00,0.0,WeatherDisplay:10.37,2013-04-13 05:50:00,
2013-04-12 22:55:00,50.6,47.5,29.83,SE,130,0.0,0.0,89,0.00,,SKC,0.00,0.0,WeatherDisplay:10.37,2013-04-13 05:55:00,
2013-04-12 23:00:00,50.5,47.4,29.83,SE,130,0.0,0.0,89,0.00,,SKC,0.00,0.0,WeatherDisplay:10.37,2013-04-13 06:00:00,
2013-04-12 23:05:00,50.4,47.3,29.83,SE,130,1.0,1.0,89,0.00,,SKC,0.00,0.0,WeatherDisplay:10.37,2013-04-13 06:05:00,
2013-04-12 23:10:00,50.5,47.4,29.83,SE,130,0.0,0.0,89,0.00,,SKC,0.00,0.0,WeatherDisplay:10.37,2013-04-13 06:10:00,
2013-04-12 23:15:00,50.4,47.3,29.83,SE,130,0.0,0.0,89,0.00,,SKC,0.00,0.0,WeatherDisplay:10.37,2013-04-13 06:15:00,
2013-04-12 23:20:00,50.4,47.3,29.83,SE,130,0.0,0.0,89,0.00,,SKC,0.00,0.0,WeatherDisplay:10.37,2013-04-13 06:20:00,
2013-04-12 23:25:00,50.4,47.3,29.83,SE,130,0.0,0.0,89,0.00,,SKC,0.00,0.0,WeatherDisplay:10.37,2013-04-13 06:25:00,
2013-04-12 23:30:00,50.3,47.2,29.83,SE,130,2.3,2.3,89,0.00,,SKC,0.00,0.0,WeatherDisplay:10.37,2013-04-13 06:30:00,
2013-04-12 23:35:00,50.1,47.0,29.83,SE,130,1.2,1.2,89,0.00,,SKC,0.00,0.0,WeatherDisplay:10.37,2013-04-13 06:35:00,
2013-04-12 23:42:00,50.1,47.0,29.84,SE,130,0.0,0.0,89,0.00,,SKC,0.00,0.0,WeatherDisplay:10.37,2013-04-13 06:42:00,
2013-04-12 23:47:00,50.2,47.4,29.84,SE,130,0.0,0.0,90,0.00,,SKC,0.00,0.0,WeatherDisplay:10.37,2013-04-13 06:47:00,
2013-04-12 23:52:00,50.2,47.4,29.84,SE,130,1.0,1.0,90,0.00,,SKC,0.00,0.0,WeatherDisplay:10.37,2013-04-13 06:52:00,
2013-04-12 23:57:00,50.4,47.6,29.83,SE,130,0.0,0.0,90,0.00,,SKC,0.00,0.0,WeatherDisplay:10.37,2013-04-13 06:57:00,